Wind_Speed
23 24 24 24 19 20 23 30 17 4 2 12 9 24 23 20 16 15 15 13 9 5 10 12 8 6 10 8 9 8 9 9 10 8 8 10 11 10
17 18 20 20 20 20 23 25 23 15 4 6 7 26 26 20 19 17 13 13 12 8 9 12 11 10 7 6 8 8 9 9 9 9 9 8 10 11
14 15 16 17 16 16 18 19 15 15 11 8 14 17 24 23 21 15 16 13 12 10 11 11 8 7 3 3 4 9 9 8 9 9 8 10 11 12
16 16 16 15 15 13 15 16 15 9 20 15 18 18 20 22 21 20 17 12 11 11 11 10 7 4 2 3 4 6 8 9 10 9 10 11 11 13
19 21 23 21 19 16 15 13 13 13 18 21 16 18 22 22 22 18 15 14 14 12 10 9 9 6 5 6 7 7 8 8 10 10 10 13 13 13
19 19 20 21 20 20 20 17 17 16 17 25 21 20 22 24 23 24 19 17 15 14 13 11 9 6 6 6 5 6 7 7 10 12 11 12 12 11
25 23 22 21 19 19 21 20 20 23 26 25 19 18 18 23 23 23 20 21 17 17 17 13 11 10 7 5 5 6 7 7 8 10 11 13 14 13
29 26 23 22 23 20 18 17 21 26 26 21 14 18 20 27 25 27 24 21 7 18 20 17 13 10 7 4 3 5 5 4 3 4 5 10 12 12
28 27 27 24 23 22 19 19 17 16 17 21 23 21 21 25 27 27 28 26 14 19 23 14 16 14 10 6 3 2 3 2 1 3 4 5 6 9
31 31 31 30 28 26 24 20 20 18 16 14 16 17 18 21 24 25 30 24 17 16 25 9 19 17 15 10 6 4 1 1 1 2 2 3 3 5
32 32 31 31 27 24 24 23 19 17 16 15 14 14 16 16 23 22 26 23 9 12 27 12 16 16 16 15 12 9 5 2 2 2 3 1 4 4
34 30 30 26 25 26 24 23 22 20 18 17 17 19 18 16 19 22 23 23 14 7 21 16 15 14 6 16 16 14 8 3 2 4 2 1 9 5
38 34 30 25 25 24 23 22 23 21 19 16 17 18 19 22 22 21 20 24 24 7 14 26 17 19 7 6 20 19 13 9 6 4 3 3 6 3
42 39 35 31 26 24 23 21 20 20 20 19 18 19 22 23 22 21 20 22 21 11 11 23 11 21 16 8 6 18 18 13 10 8 6 5 4 3
38 42 40 31 27 24 23 24 22 23 25 23 22 21 22 22 22 21 19 18 16 13 10 15 19 17 17 11 8 9 14 17 14 13 11 8 7 4
37 36 36 33 29 26 26 25 24 24 24 24 25 23 21 23 22 20 19 19 17 14 14 16 20 15 15 15 11 11 12 8 16 15 14 10 9 8
37 32 34 32 30 29 29 27 26 24 24 24 26 24 22 23 22 21 19 20 14 17 16 17 16 15 11 12 14 12 14 13 9 15 16 13 10 8
35 33 31 32 30 30 29 30 28 27 26 25 26 27 26 26 24 21 20 21 19 19 21 20 19 16 11 10 14 13 15 15 13 14 15 14 12 10
30 31 31 33 32 31 30 30 31 31 29 29 29 29 26 26 26 24 22 22 20 19 21 22 22 21 9 6 9 16 15 16 17 15 16 15 12 8
34 35 34 34 33 33 31 29 28 30 31 32 30 30 28 28 26 24 24 23 20 19 20 22 23 23 16 12 10 10 16 16 19 17 16 15 12 9
28 29 31 34 33 33 32 31 32 30 33 34 31 29 29 30 28 26 24 23 22 18 17 20 25 22 19 11 8 8 13 16 16 16 15 15 12 11
31 33 33 33 35 36 35 34 32 30 30 30 31 31 30 32 30 30 27 26 24 21 21 19 18 18 17 17 14 13 10 15 15 17 15 14 8 5
34 33 33 35 36 37 37 35 34 33 33 32 33 33 30 27 29 30 29 27 27 23 22 19 19 20 18 17 15 16 13 13 16 16 15 16 17 16
Wind_Direction
221 218 218 211 202 208 195 180 155 150 155 171 166 201 196 191 192 188 182 166 157 157 159 139 146 133 104 99 84 74 70 65 61 54 52 40 19 24
218 221 223 224 221 216 211 199 188 155 132 147 168 188 194 189 194 192 175 163 152 153 139 145 146 118 113 90 77 74 66 64 64 62 55 53 43 24
203 215 226 212 207 202 195 187 165 150 121 115 156 175 181 189 190 185 180 171 156 152 149 158 152 141 129 78 80 77 64 58 53 58 66 64 62 43
209 191 181 170 161 160 157 150 149 134 138 114 131 150 171 193 190 181 181 175 162 151 156 170 144 145 115 79 77 82 74 66 54 61 67 71 72 72
203 196 179 174 168 167 161 161 154 151 154 156 146 162 159 185 181 184 182 175 165 149 158 144 145 125 106 86 82 83 81 73 58 68 69 70 70 64
196 194 190 183 185 184 176 174 170 159 158 161 145 149 158 172 184 174 171 174 157 160 163 155 144 131 115 100 73 78 87 81 68 66 68 68 69 66
195 196 200 195 193 197 184 170 174 165 160 152 148 152 149 159 170 179 173 169 168 168 170 172 162 157 145 130 99 90 98 103 88 75 70 69 65 57
188 185 189 193 182 189 186 189 187 180 172 165 159 155 166 174 180 177 165 158 157 187 178 181 196 187 182 167 125 92 81 100 126 97 82 75 67 66
193 184 183 185 180 175 175 170 175 193 203 186 179 179 179 193 188 177 178 178 175 183 184 184 201 210 207 193 184 99 60 58 83 134 117 108 93 76
200 195 188 184 181 178 180 175 183 190 192 188 201 200 201 197 201 199 194 178 183 184 187 175 201 212 213 203 194 196 234 352 310 183 166 143 125 102
207 200 193 187 175 184 183 180 176 180 183 184 187 195 198 186 188 186 170 162 140 177 194 194 192 204 210 212 203 210 225 308 337 120 130 193 187 159
207 199 202 187 183 185 187 183 174 179 176 177 179 187 191 193 190 195 189 168 160 156 202 191 182 186 180 218 211 205 218 237 141 141 137 53 179 171
202 195 198 188 193 195 198 194 194 183 175 177 179 183 183 186 189 194 203 203 187 177 198 192 187 187 179 163 205 213 222 219 201 203 195 128 162 178
198 198 195 189 193 200 190 192 193 183 176 171 170 170 176 179 181 186 198 203 210 228 218 199 197 193 187 168 178 211 219 219 216 211 200 173 180 145
206 205 193 186 188 189 182 186 186 179 176 171 176 178 181 176 177 180 186 197 204 201 206 207 214 206 211 204 185 193 200 219 219 213 212 210 212 215
204 202 186 179 183 181 173 183 183 183 180 185 186 184 177 171 173 182 184 186 191 195 196 203 212 221 210 217 216 197 200 192 206 209 208 210 213 226
191 176 159 165 171 174 179 178 179 182 185 192 188 185 182 180 182 190 197 190 184 190 189 195 199 207 214 225 202 207 204 201 195 198 201 208 217 218
176 168 170 171 171 173 174 181 182 185 187 191 189 190 183 182 183 189 196 195 184 188 194 191 185 181 186 206 216 213 204 210 200 199 206 213 226 233
181 176 179 176 177 176 176 180 182 190 191 194 190 193 188 185 188 191 192 193 189 190 194 193 190 188 173 199 210 213 216 209 200 200 207 215 231 249
187 184 183 180 178 175 179 180 179 188 194 197 194 195 192 191 189 195 198 196 192 191 193 198 200 200 201 201 197 212 213 213 203 207 209 218 233 245
195 190 186 181 178 178 180 181 181 184 192 194 191 191 194 193 193 200 203 201 193 190 189 201 211 215 217 211 196 202 207 208 215 214 210 215 225 240
199 190 187 183 178 178 182 182 179 181 187 190 189 188 192 195 195 200 201 195 193 191 196 199 196 196 197 200 200 199 191 199 207 217 226 232 216 215
198 195 187 183 181 181 184 183 184 186 189 190 189 188 187 188 198 203 203 202 195 196 196 189 188 194 201 203 203 195 195 202 206 214 225 230 234 241
Height
792 794 796 801 805 808 807 811 815 830 837 842 844 851 854 857 863 866 870 867 868 870 874 875 879 881 879 880 876 878 877 877 876 876 875 875 878 873
789 794 799 800 802 804 807 810 813 813 827 834 840 844 850 856 862 868 867 868 868 873 876 876 876 882 884 879 878 878 877 876 876 875 875 873 873 876
788 791 794 798 801 804 805 809 813 815 823 832 838 843 848 855 862 865 867 868 870 873 876 877 880 882 883 879 878 877 877 878 875 875 873 871 871 874
786 787 791 794 798 802 805 808 812 816 820 829 838 842 848 854 861 863 867 868 870 874 875 879 877 883 883 880 879 878 879 877 877 876 875 872 870 870
784 784 780 787 795 799 801 808 811 816 819 825 833 840 845 850 858 863 866 870 872 875 877 878 882 882 882 881 881 879 879 879 878 875 874 870 871 873
782 787 787 783 789 798 798 804 809 814 818 822 829 835 842 847 851 856 863 869 872 874 877 879 881 882 881 882 882 881 880 880 879 877 877 873 875 876
772 778 784 785 787 796 798 798 807 811 816 820 826 831 837 844 849 855 860 866 870 872 875 878 880 881 882 883 882 882 881 881 880 879 878 877 877 876
768 770 778 785 779 791 796 799 803 809 811 816 822 826 832 838 844 849 855 862 867 870 873 876 879 880 881 882 882 882 881 880 880 880 881 877 878 879
766 766 772 779 780 785 793 795 801 809 812 810 816 824 831 833 839 844 849 852 856 862 868 873 876 878 880 881 881 881 881 881 881 880 879 879 881 880
760 763 765 772 772 778 788 791 797 804 808 810 815 820 826 829 833 835 841 849 855 860 865 869 872 875 878 879 881 881 881 881 881 880 880 880 881 880
760 763 763 769 765 777 780 789 794 799 804 808 813 821 825 825 829 833 840 845 852 858 861 864 868 872 875 877 879 880 880 880 880 879 880 880 880 881
759 757 767 763 763 772 779 782 789 797 800 806 811 817 821 823 826 830 835 841 847 855 857 862 864 869 873 874 876 878 878 879 879 880 880 879 879 881
747 752 760 759 765 770 776 779 785 792 798 804 809 813 815 821 824 827 832 836 843 847 849 856 859 863 866 869 872 874 876 877 877 879 880 880 880 881
736 742 751 753 760 768 770 779 784 789 795 802 805 809 814 818 821 824 831 836 841 844 847 851 853 857 861 866 868 870 872 874 875 877 878 879 880 880
727 737 744 747 757 764 767 774 782 785 791 796 803 809 813 815 819 824 828 834 839 842 846 849 852 855 858 860 862 865 869 870 872 874 876 878 879 879
723 736 737 742 753 760 766 771 778 783 785 794 801 806 809 813 817 823 827 831 836 840 843 847 850 854 856 858 860 862 864 866 868 871 874 876 877 878
717 728 731 741 749 757 762 768 773 779 784 792 798 803 806 811 815 820 825 829 831 837 840 844 848 851 854 856 857 860 861 863 865 868 871 873 875 876
708 716 725 733 740 748 754 762 767 774 780 788 793 798 801 806 811 818 822 826 828 832 837 841 844 848 852 853 855 856 858 860 862 865 868 870 872 873
702 707 718 723 731 738 746 754 759 767 775 784 788 793 795 801 809 814 818 822 825 828 833 837 841 844 848 849 851 853 855 857 860 862 864 866 868 870
692 700 708 714 721 728 738 747 754 761 770 779 783 788 791 796 803 810 814 817 821 825 828 833 836 839 841 845 847 849 851 854 856 859 861 864 866 867
690 694 700 707 712 720 730 739 744 752 763 771 777 781 786 792 798 805 809 813 817 821 824 827 831 836 840 843 845 846 848 851 854 856 858 861 863 864
683 686 693 699 704 711 722 731 737 748 758 765 770 775 779 786 791 799 804 808 813 816 819 824 829 833 836 838 840 843 845 848 851 853 856 857 859 860
674 680 683 689 697 704 714 722 729 740 748 756 760 767 773 780 788 795 800 804 809 813 817 822 827 831 833 835 837 840 842 845 848 850 851 853 854 856